リニア彗星

C/2007 M3 ( LINEAR )

English version
Home page
Total 6,336 html files since Dec. 4, 1995
Updated on May 25, 2008

---------------------------------------------------------------------

・ プロフィール

発見日 2007年6月21日
発見光度 17.2等
発見者 Lincoln Laboratory Near-Earth Asteroid Research project

・ 写真集

・ 軌道要素

Epoch 2007 Sept. 17.0 TT = JDT 2454360.5
T 2007 Sept. 4.59875 TT                                 MPC
q   3.4687884            (2000.0)            P               Q
z  +0.0057129      Peri.  125.73996     +0.07547903     -0.97522780
 +/-0.0000469      Node    41.62732     -0.98573148     -0.04151203
e   0.9801830      Incl.  161.75928     -0.15045386     -0.21727286

・ 星図

・ 光度変化

        m1 = 8.5 + 5 logΔ + 10.0 log r

---------------------------------------------------------------------

軌道要素はM.P.E.C. 2007-Q25に掲載されたものです。
星図は StellaNavigator Ver.2.0 for Windows (アストロアーツ 編著 / アスキー出版局刊) で作成したものです。
光度グラフはComet for Windowsで作成したものです。

---------------------------------------------------------------------

Copyright(C) 1995-2008 Seiichi Yoshida (comet@aerith.net). All rights reserved.